Weerstation Grootegast  Weerstation Grootegast


15 daagse weersverwachting Rostock (DE)

  • Overzicht
  • Per uur
  • 15 dagen
  • Extra
  • Vergelijk
  • Kaarten
  • Dagkaart
  • Meer »
  • Info
  • Statistieken
  • Directe link
    Temp 6h Neerslag Wind  
 07:15     17:35    Daglengte: 10:20 Vandaag
13:00
 
6
19:00
6.6 mm
9
 07:13     17:37    Daglengte: 10:24 Morgen
01:00
4.8 mm
10
07:00
 
7
13:00
 
4
19:00
3.8 mm
6
 07:10     17:39    Daglengte: 10:29 Dinsdag 25 Feb
01:00
15.9 mm
5
07:00
7.4 mm
8
13:00
 
11
warningclass
19:00
16.5 mm
10
 07:08     17:41    Daglengte: 10:33 Woensdag 26 Feb
01:00
 
7
07:00
6.3 mm
5
Locatie info
Region: Mecklenburg-Vorpommern
Latitude: 54.0791°N
Longitude: 12.1322°E
18 masl
Postcode: 18055
Temp/Neerslag /Baro Onweer/DauwpuntSneeuw
    Temp Baro 1h Neerslag Dauwpunt Wind UV BewolkingSneeuw  
 07:15     17:35    Daglengte: 10:20 Vandaag
13:00
Voelt als: 1.9°
1002.5 hPa
48%
3.3°
6
Windvlaag: 9 m/s
91%
14:00
Voelt als: 2.2°
1001.0 hPa 0.6 mm
82%
3.7°
5
Windvlaag: 7.5 m/s
91%
15:00
Voelt als: 2.0°
1000.1 hPa 0.7 mm
82%
3.9°
5
Windvlaag: 7.1 m/s
89%
16:00
Voelt als: 1.7°
999.6 hPa 0.9 mm
82%
3.7°
5
Windvlaag: 7 m/s
89%
17:00
Voelt als: 1.1°
999.8 hPa 1.1 mm
82%
3.7°
5
Windvlaag: 7.6 m/s
91%
18:00
Voelt als: 0.0°
1000.6 hPa 1.5 mm
82%
3.4°
7
Windvlaag: 11 m/s
91%
19:00
Voelt als: -1.3°
1002.0 hPa 1.8 mm
82%
2.3°
9
Windvlaag: 13.1 m/s
91%
20:00
Voelt als: -1.8°
1003.5 hPa 1.8 mm
82%
2.0°
10
Windvlaag: 12.4 m/s
91%
21:00
Voelt als: -1.5°
1004.9 hPa 1.6 mm
82%
1.5°
10
Windvlaag: 13.1 m/s
48%
22:00
Voelt als: -1.4°
1006.7 hPa 1.3 mm
82%
0.8°
10
Windvlaag: 13 m/s
38%
23:00
Voelt als: -1.4°
1008.2 hPa
77%
0.6°
10
Windvlaag: 14 m/s
27%
 07:13     17:37    Daglengte: 10:24 Morgen
00:00
Voelt als: -1.4°
1009.6 hPa
26%
0.8°
10
Windvlaag: 13.8 m/s
17%
01:00
Voelt als: -1.0°
1010.8 hPa
72%
0.5°
10
Windvlaag: 14 m/s
58%
02:00
Voelt als: -0.8°
1011.8 hPa
33%
0.6°
10
Windvlaag: 14.1 m/s
59%
03:00
Voelt als: -0.6°
1012.4 hPa
65%
1.2°
10
Windvlaag: 14.1 m/s
69%
04:00
Voelt als: -0.4°
1013.1 hPa
69%
2.1°
10
Windvlaag: 13.1 m/s
29%
05:00
Voelt als: -0.2°
1014.0 hPa
76%
2.3°
9
Windvlaag: 12.2 m/s
33%
06:00
Voelt als: -0.1°
1014.9 hPa
70%
2.5°
8
Windvlaag: 11.3 m/s
33%
07:00
Voelt als: -0.2°
1015.5 hPa
59%
2.1°
7
Windvlaag: 10.1 m/s
32%
08:00
Voelt als: 0.1°
1016.2 hPa
17%
1.8°
6
Windvlaag: 8.6 m/s
55%
09:00
Voelt als: 1.0°
1016.4 hPa
19%
2.2°
5
Windvlaag: 7 m/s
69%
10:00
Voelt als: 2.0°
1016.4 hPa
24%
2.2°
5
Windvlaag: 6.3 m/s
73%
11:00
Voelt als: 2.5°
1016.2 hPa
58%
1.7°
5
Windvlaag: 6.5 m/s
86%
12:00
Voelt als: 3.1°
1015.7 hPa
29%
1.5°
5
Windvlaag: 6.5 m/s
90%
13:00
Voelt als: 3.3°
1014.8 hPa
76%
1.7°
4
Windvlaag: 6.2 m/s
91%
14:00
Voelt als: 3.4°
1013.5 hPa
73%
2.6°
4
Windvlaag: 6 m/s
91%
15:00
Voelt als: 3.1°
1012.3 hPa
58%
2.6°
4
Windvlaag: 7.1 m/s
91%
16:00
Voelt als: 2.8°
1010.7 hPa
31%
2.1°
4
Windvlaag: 6.4 m/s
91%
17:00
Voelt als: 1.8°
1008.9 hPa
82%
1.6°
5
Windvlaag: 6.8 m/s
91%
18:00
Voelt als: 0.2°
1007.8 hPa 1.6 mm
82%
1.3°
5
Windvlaag: 8.3 m/s
91%
19:00
Voelt als: -1.6°
1005.8 hPa 2.2 mm
82%
1.5°
6
Windvlaag: 9.6 m/s
91%
20:00
Voelt als: -2.3°
1003.5 hPa 2.2 mm
82%
1.5°
7
Windvlaag: 10.9 m/s
91%1 cm
21:00
Voelt als: -3.2°
1001.1 hPa 2.3 mm
82%
1.3°
7
Windvlaag: 11.1 m/s
91%2 cm
22:00
Voelt als: -3.2°
999.3 hPa 2.4 mm
82%
1.3°
7
Windvlaag: 10.8 m/s
91%2 cm
23:00
Voelt als: -2.1°
997.6 hPa 2.6 mm
82%
1.8°
6
Windvlaag: 10 m/s
91%3 cm
 07:10     17:39    Daglengte: 10:29 Dinsdag 25 Feb
00:00
Voelt als: -0.9°
996.0 hPa 2.9 mm
81%
2.6°
5
Windvlaag: 9.1 m/s
89%3 cm
01:00
Voelt als: 0.8°
994.7 hPa 3.6 mm
79%
4.1°
5
Windvlaag: 9.3 m/s
87%3 cm
02:00
Voelt als: 2.4°
993.8 hPa
75%
5.4°
6
Windvlaag: 10.5 m/s
65%3 cm
03:00
Voelt als: 3.3°
993.0 hPa
34%
5.8°
6
Windvlaag: 10.2 m/s
73%3 cm
04:00
Voelt als: 3.1°
992.8 hPa 3.5 mm
70%
5.2°
8
Windvlaag: 15.2 m/s
55%2 cm
05:00
Voelt als: 1.8°
993.4 hPa 3.9 mm
74%
3.0°
8
Windvlaag: 11.7 m/s
14%2 cm
06:00
Voelt als: 0.9°
993.6 hPa
82%
1.2°
8
Windvlaag: 10.3 m/s
31%2 cm
07:00
Voelt als: -0.0°
993.5 hPa
72%
0.8°
8
Windvlaag: 10.4 m/s
51%2 cm
08:00
Voelt als: -0.2°
993.5 hPa
80%
0.6°
8
Windvlaag: 11.6 m/s
40%2 cm
09:00
Voelt als: -0.0°
993.2 hPa
81%
0.7°
9
Windvlaag: 12.5 m/s
32%2 cm
10:00
Voelt als: 0.2°
992.8 hPa
48%
0.8°
10
Windvlaag: 14.4 m/s
73%2 cm
11:00
Voelt als: 0.3°
992.4 hPa
35%
0.4°
10
Windvlaag: 15.8 m/s
85%2 cm
12:00
Voelt als: 0.7°
991.9 hPa
100%
0.3°
11
Windvlaag: 16.8 m/s
72%1 cm
13:00
Voelt als: 0.8°
991.4 hPa
100%
0.3°
11
Windvlaag: 17.7 m/s
72%1 cm warningclass
14:00
Voelt als: 0.5°
991.0 hPa 3.6 mm
100%
0.4°
12
Windvlaag: 18 m/s
66%1 cm warningclass
15:00
Voelt als: 0.2°
990.5 hPa
97%
0.4°
12
Windvlaag: 18.6 m/s
37%1 cm warningclass
16:00
Voelt als: -0.2°
990.5 hPa 3.5 mm
100%
0.2°
12
Windvlaag: 18.9 m/s
38%1 cm warningclass
17:00
Voelt als: -0.7°
990.4 hPa 3.6 mm
100%
-0.2°
11
Windvlaag: 18 m/s
63%1 cm warningclass
18:00
Voelt als: -1.5°
990.3 hPa
100%
-0.6°
11
Windvlaag: 17 m/s
69%1 cm warningclass
19:00
Voelt als: -1.5°
990.3 hPa 5.8 mm
98%
0.0°
10
Windvlaag: 6.9 m/s
40%1 cm
20:00
Voelt als: -1.9°
990.7 hPa
83%
-0.2°
10
Windvlaag: 13.6 m/s
37%1 cm
21:00
Voelt als: -2.1°
990.7 hPa
30%
-0.2°
10
Windvlaag: 13.6 m/s
50%1 cm
22:00
Voelt als: -2.1°
990.6 hPa
33%
-0.2°
9
Windvlaag: 13 m/s
62%1 cm
23:00
Voelt als: -2.1°
990.5 hPa
34%
-0.2°
9
Windvlaag: 11.7 m/s
61%1 cm
 07:08     17:41    Daglengte: 10:33 Woensdag 26 Feb
00:00
Voelt als: -2.1°
990.4 hPa
34%
-0.3°
8
Windvlaag: 10.2 m/s
57%1 cm
01:00
Voelt als: -2.2°
990.3 hPa
26%
-0.4°
7
Windvlaag: 4.7 m/s
48%1 cm
02:00
Voelt als: -2.4°
990.0 hPa
27%
-0.4°
7
Windvlaag: 9.3 m/s
40%1 cm
03:00
Voelt als: -2.4°
989.6 hPa
26%
-0.4°
6
Windvlaag: 9.3 m/s
30%1 cm
04:00
Voelt als: -2.7°
989.1 hPa
24%
-0.4°
6
Windvlaag: 8.7 m/s
70%1 cm
05:00
Voelt als: -2.6°
988.8 hPa
23%
-0.3°
5
Windvlaag: 8.3 m/s
76%1 cm
06:00
Voelt als: -2.4°
988.4 hPa
86%
-0.1°
5
Windvlaag: 7.1 m/s
83%1 cm
07:00
Voelt als: -2.4°
988.0 hPa 6.3 mm
100%
-0.1°
5
Windvlaag: 3.5 m/s
85%1 cm
08:00
Voelt als: -2.3°
987.6 hPa 7.4 mm
100%
-0.4°
4
Windvlaag: 11.9 m/s
90%1 cm
09:00
Voelt als: -1.7°
987.7 hPa 7.1 mm
100%
0.0°
5
Windvlaag: 14.7 m/s
91%1 cm
10:00
Voelt als: -1.3°
987.8 hPa
94%
0.2°
6
Windvlaag: 13.2 m/s
99%1 cm
11:00
Voelt als: -0.7°
988.1 hPa
37%
0.2°
5
Windvlaag: 11.3 m/s
96%1 cm
12:00
Voelt als: -0.4°
988.4 hPa
34%
-0.2°
6
Windvlaag: 11.2 m/s
93%1 cm
Temp/Neerslag /Baro Onweer/DauwpuntSneeuw
    Temp Baro Neerslag Dauwpunt Wind BewolkingSneeuw  
 07:15     17:35    Daglengte: 10:20 Vandaag
13:00
Voelt als: 1.9°
1002.5 hPa   3.3°
6
91%
16:00
Voelt als: 1.7°
999.6 hPa 2.2 mm 3.7°
5
89%
19:00
Voelt als: -1.3°
1002.0 hPa 4.4 mm 2.3°
9
91%
22:00
Voelt als: -1.4°
1006.7 hPa 4.8 mm 0.8°
10
38%
 07:13     17:37    Daglengte: 10:24 Morgen
01:00
Voelt als: -1.0°
1010.8 hPa   0.5°
10
58%
04:00
Voelt als: -0.4°
1013.1 hPa   2.1°
10
29%
07:00
Voelt als: -0.2°
1015.5 hPa   2.1°
7
32%
10:00
Voelt als: 2.0°
1016.4 hPa   2.2°
5
73%
13:00
Voelt als: 3.3°
1014.8 hPa   1.7°
4
91%
16:00
Voelt als: 2.8°
1010.7 hPa   2.1°
4
91%
19:00
Voelt als: -1.6°
1005.8 hPa 3.8 mm 1.5°
6
91%
22:00
Voelt als: -3.2°
999.3 hPa 6.8 mm 1.3°
7
91%2 cm
 07:10     17:39    Daglengte: 10:29 Dinsdag 25 Feb
01:00
Voelt als: 0.8°
994.7 hPa 9.1 mm 4.1°
5
87%3 cm
04:00
Voelt als: 3.1°
992.8 hPa 3.5 mm 5.2°
8
55%2 cm
07:00
Voelt als: -0.0°
993.5 hPa 3.9 mm 0.8°
8
51%2 cm
10:00
Voelt als: 0.2°
992.8 hPa   0.8°
10
73%2 cm
13:00
Voelt als: 0.8°
991.4 hPa   0.3°
11
72%1 cm warningclass
16:00
Voelt als: -0.2°
990.5 hPa 7.1 mm 0.2°
12
38%1 cm warningclass
19:00
Voelt als: -1.5°
990.3 hPa 9.4 mm 0.0°
10
40%1 cm
22:00
Voelt als: -2.1°
990.6 hPa   -0.2°
9
62%1 cm
 07:08     17:41    Daglengte: 10:33 Woensdag 26 Feb
01:00
Voelt als: -2.2°
990.3 hPa   -0.4°
7
48%1 cm
04:00
Voelt als: -2.7°
989.1 hPa   -0.4°
6
70%1 cm
07:00
Voelt als: -2.4°
988.0 hPa 6.3 mm -0.1°
5
85%1 cm
10:00
Voelt als: -1.3°
987.8 hPa 14.5 mm 0.2°
6
99%1 cm
13:00
Voelt als: 0.0°
988.6 hPa   -0.1°
6
97%1 cm
16:00
Voelt als: 0.1°
991.2 hPa 19.4 mm 0.4°
3
89%
19:00
Voelt als: -0.5°
992.4 hPa 19.4 mm 0.5°
3
88%
22:00
Voelt als: -1.5°
993.6 hPa 19.4 mm 0.4°
4
85%
 07:06     17:43    Daglengte: 10:37 Donderdag 27 Feb
01:00
Voelt als: -2.4°
994.6 hPa 19.6 mm 0.4°
4
82%
04:00
Voelt als: -2.1°
995.8 hPa 19.7 mm 0.4°
4
84%
07:00
Voelt als: -1.9°
997.0 hPa 19.9 mm 0.2°
4
87%
10:00
Voelt als: -0.6°
998.8 hPa 19.9 mm 0.2°
4
86%
13:00
Voelt als: 0.7°
1000.4 hPa 19.9 mm 0.3°
5
85%
16:00
Voelt als: 0.1°
1000.5 hPa 20.0 mm 0.4°
4
77%
19:00
Voelt als: -0.5°
1000.6 hPa 20.0 mm 0.3°
3
70%
22:00
Voelt als: -1.7°
1000.6 hPa 20.1 mm 0.1°
3
68%
 07:03     17:45    Daglengte: 10:42 Vrijdag 28 Feb
01:00
Voelt als: -2.8°
1000.4 hPa 22.7 mm -0.0°
4
67% warningclass
04:00
Voelt als: -2.8°
1000.1 hPa 25.0 mm -0.0°
4
71% warningclass
07:00
Voelt als: -2.8°
1000.4 hPa 26.3 mm -0.1°
4
74% warningclass
10:00
Voelt als: -0.6°
999.3 hPa 26.5 mm 0.2°
4
82%
13:00
Voelt als: 2.4°
998.1 hPa 26.7 mm 0.1°
4
90%
16:00
Voelt als: 1.4°
998.9 hPa 26.7 mm 0.5°
3
87%
19:00
Voelt als: 0.2°
999.4 hPa 26.7 mm 0.8°
3
84%
22:00
Voelt als: -0.2°
996.8 hPa 26.7 mm 1.1°
3
88%
 07:01     17:47    Daglengte: 10:46 Zaterdag 29 Feb
01:00
Voelt als: -0.5°
993.9 hPa 26.7 mm 1.5°
3
92%
04:00
Voelt als: -1.0°
990.2 hPa 26.7 mm 1.4°
4
92%
07:00
Voelt als: -1.8°
986.5 hPa 29.4 mm 1.4°
4
92%
10:00
Voelt als: -0.6°
986.0 hPa 31.7 mm 2.3°
5
92%
13:00
Voelt als: 1.0°
985.6 hPa 32.8 mm 3.5°
5
92%
16:00
Voelt als: 2.2°
985.1 hPa 33.3 mm 3.7°
4
91%
19:00
Voelt als: 3.0°
984.6 hPa 35.0 mm 3.7°
3
90%
22:00
Voelt als: 1.1°
985.8 hPa 35.8 mm 2.1°
4
84%
 06:59     17:49    Daglengte: 10:50 Zondag 01 Maa
01:00
Voelt als: -0.8°
987.0 hPa 35.9 mm 0.5°
5
77%
04:00
Voelt als: -1.2°
987.4 hPa 36.3 mm 0.5°
5
83%
07:00
Voelt als: -1.6°
987.8 hPa 36.3 mm 0.5°
5
90%
10:00
Voelt als: -0.0°
989.9 hPa   0.6°
6
90%
13:00
Voelt als: 1.6°
992.0 hPa 72.7 mm 0.5°
6
89%
19:00
Voelt als: -0.1°
993.1 hPa 74.6 mm -0.8°
4
77%
 06:56     17:51    Daglengte: 10:55 Maandag 02 Maa
01:00
Voelt als: -2.4°
995.0 hPa 75.0 mm -0.3°
5
66%
07:00
Voelt als: -1.9°
997.9 hPa 80.2 mm -0.1°
3
73%
13:00
Voelt als: 1.9°
1000.6 hPa 86.0 mm -0.2°
4
78%
19:00
Voelt als: 0.2°
1002.4 hPa 86.6 mm -0.3°
3
63%
 06:54     17:53    Daglengte: 10:59 Dinsdag 03 Maa
01:00
Voelt als: -1.6°
1003.7 hPa 88.5 mm -1.4°
2
51% warningclass
07:00
Voelt als: -2.6°
1002.0 hPa 92.9 mm -1.6°
2
89% warningclass
13:00
Voelt als: 2.7°
1003.8 hPa 93.5 mm -0.4°
4
90%
19:00
Voelt als: 0.4°
1002.2 hPa 93.6 mm -0.6°
3
61%
 06:52     17:55    Daglengte: 11:03 Woensdag 04 Maa
01:00
-4°
Voelt als: -7.5°
1003.1 hPa 93.6 mm -5.9°
2
0% warningclass
07:00
Voelt als: -1.7°
1000.5 hPa 0.5 mm 0.1°
4
66%
13:00
Voelt als: 2.3°
1002.0 hPa 0.5 mm 1.3°
3
72%
19:00
Voelt als: 1.4°
1003.3 hPa 0.3 mm 1.3°
2
70%
 06:49     17:57    Daglengte: 11:08 Donderdag 05 Maa
01:00
Voelt als: -0.7°
1003.7 hPa 0.3 mm 0.7°
3
61%
07:00
Voelt als: -0.6°
1003.6 hPa 0.6 mm 0.7°
3
69%
13:00
Voelt als: 3.0°
1004.2 hPa 0.7 mm 1.5°
2
68%
19:00
Voelt als: 1.0°
1005.0 hPa 1.2 mm 0.8°
2
50%
 06:47     17:59    Daglengte: 11:12 Vrijdag 06 Maa
01:00
Voelt als: -0.5°
1005.9 hPa 0.4 mm 0.2°
3
54%
07:00
Voelt als: -1.8°
1005.7 hPa 0.5 mm -0.2°
4
53%
13:00
Voelt als: 1.8°
1005.9 hPa 0.8 mm 1.0°
5
54%
19:00
Voelt als: 0.4°
1005.6 hPa 0.9 mm 1.0°
3
53%
 06:44     18:01    Daglengte: 11:17 Zaterdag 07 Maa
01:00
Voelt als: -1.4°
1005.8 hPa 0.4 mm 0.5°
4
42%
07:00
Voelt als: -1.9°
1006.0 hPa 0.2 mm 0.1°
4
37%
13:00
Voelt als: 1.9°
1007.2 hPa 0.9 mm 1.1°
5
50%
19:00
Voelt als: 0.4°
1008.9 hPa 0.5 mm 1.0°
4
49%
 06:42     18:03    Daglengte: 11:21 Zondag 08 Maa
01:00
Voelt als: -1.3°
1010.5 hPa 0.4 mm 0.2°
4
41%
07:00
Voelt als: -2.3°
1010.8 hPa 0.7 mm -0.7°
4
42%
13:00
Voelt als: 2.9°
1010.6 hPa 1.0 mm 1.2°
3
54%
19:00
Voelt als: 2.3°
1009.6 hPa 0.8 mm 0.9°
1
55%
 06:39     18:05    Daglengte: 11:26 Maandag 09 Maa
01:00
Voelt als: 0.7°
1009.5 hPa 0.7 mm 0.6°
2
46%
07:00
Voelt als: 0.4°
1009.5 hPa 0.5 mm 0.4°
2
54%
  CAPE Lifted Index Hail Supercell Tornado SRH 3km CL BTM PRES CL TOP PRES Swiss DWD icon SMHI TS
 07:15     17:35    Daglengte: 10:20 Vandaag
13:00 15 J/kg 9.8 K 0 % 0 % 0 % 0 m²/s² 0 0 10.28 61
14:00 19 J/kg 7.8 K 0 % 0 % 0 % 0 m²/s² 0 0 8.25 61
15:00 14 J/kg 6.4 K 0 % 0 % 0 % 0 m²/s² 0 0 6.82 61
16:00 15 J/kg 5.5 K 0 % 0 % 0 % 0 m²/s² 0 0 5.92 61
17:00 15 J/kg 4.6 K 0 % 0 % 0 % 0 m²/s² 0 0 5.02 61
18:00 35 J/kg 3.5 K 0 % 0 % 0 % 0 m²/s² 0 0 4.01 61
19:00 29 J/kg 4.1 K 0 % 0 % 0 % 0 m²/s² 0 0 4.61 61
20:00 0 J/kg 5.5 K 0 % 0 % 0 % 0 m²/s² 0 0 6.07 61
21:00 15 J/kg 6.2 K 0 % 0 % 0 % 0 m²/s² 0 0 6.89 80
22:00 88 J/kg 5.6 K 0 % 0 % 0 % 0 m²/s² 0 0 8.03 80
23:00 53 J/kg 4.3 K 0 % 0 % 0 % 0 m²/s² 0 0 7.93 2
 07:13     17:37    Daglengte: 10:24 Morgen
00:00 0 J/kg 3.1 K 0 % 0 % 0 % 0 m²/s² 0 0 3.88 2
01:00 0 J/kg 3.2 K 0 % 0 % 0 % 0 m²/s² 0 0 5.9 2
02:00 0 J/kg 2.6 K 0 % 0 % 0 % 0 m²/s² 0 0 6.92 2
03:00 0 J/kg 4.3 K 0 % 0 % 0 % 0 m²/s² 0 0 9.1 2
04:00 0 J/kg 6.6 K 0 % 0 % 0 % 0 m²/s² 0 0 11.82 2
05:00 3 J/kg 8.4 K 0 % 0 % 0 % 0 m²/s² 0 0 14.67 2
06:00 16 J/kg 9.4 K 0 % 0 % 0 % 0 m²/s² 0 0 14.47 2
07:00 10 J/kg 10.6 K 0 % 0 % 0 % 0 m²/s² 0 0 16.69 3
08:00 2 J/kg 11.2 K 0 % 0 % 0 % 0 m²/s² 0 0 18.01 3
09:00 0 J/kg 10.9 K 0 % 0 % 0 % 0 m²/s² 0 0 18.85 3
10:00 5 J/kg 11.6 K 0 % 0 % 0 % 0 m²/s² 0 0 19.61 3
11:00 0 J/kg 12.2 K 0 % 0 % 0 % 0 m²/s² 0 0 19.61 3
12:00 1 J/kg 12.5 K 0 % 0 % 0 % 0 m²/s² 0 0 19.13 3
13:00 8 J/kg 11.7 K 0 % 0 % 0 % 0 m²/s² 0 0 15.24 3
14:00 33 J/kg 10.8 K 0 % 0 % 0 % 0 m²/s² 0 0 12.21 3
15:00 92 J/kg 11.1 K 0 % 0 % 0 % 0 m²/s² 0 0 11.61 3
16:00 93 J/kg 11.8 K 0 % 0 % 0 % 0 m²/s² 0 0 12.19 3
17:00 58 J/kg 13.5 K 0 % 0 % 0 % 0 m²/s² 0 0 13.89 61
18:00 1 J/kg 15.2 K 0 % 0 % 0 % 0 m²/s² 0 0 15.56 61
19:00 0 J/kg 13.8 K 0 % 0 % 0 % 0 m²/s² 0 0 14.19 61
20:00 0 J/kg 10.8 K 0 % 0 % 0 % 0 m²/s² 0 0 11.19 61
21:00 0 J/kg 9.0 K 0 % 0 % 0 % 0 m²/s² 0 0 9.36 71
22:00 0 J/kg 7.7 K 0 % 0 % 0 % 0 m²/s² 0 0 8.03 77
23:00 0 J/kg 6.1 K 0 % 0 % 0 % 0 m²/s² 0 0 6.43 53
 07:10     17:39    Daglengte: 10:29 Dinsdag 25 Feb
00:00 1 J/kg 3.7 K 0 % 0 % 0 % 0 m²/s² 0 0 4.09 53
01:00 1 J/kg 2.7 K 0 % 0 % 0 % 0 m²/s² 0 0 5.1 3
02:00 22 J/kg 3.2 K 0 % 0 % 0 % 0 m²/s² 0 0 10.4 3
03:00 72 J/kg 3.5 K 0 % 0 % 0 % 0 m²/s² 0 0 11.21 3
04:00 50 J/kg 6.5 K 0 % 0 % 0 % 0 m²/s² 0 0 14.48 61
05:00 37 J/kg 8.6 K 0 % 0 % 0 % 0 m²/s² 0 0 16.49 61
06:00 0 J/kg 10.4 K 0 % 0 % 0 % 0 m²/s² 0 0 17.36 3
07:00 0 J/kg 10.5 K 0 % 0 % 0 % 0 m²/s² 0 0 16.74 3
08:00 0 J/kg 10.2 K 0 % 0 % 0 % 0 m²/s² 0 0 16.2 2
09:00 3 J/kg 9.5 K 0 % 0 % 0 % 0 m²/s² 0 0 14.66 2
10:00 25 J/kg 8.1 K 0 % 0 % 0 % 0 m²/s² 0 0 12.36 2
11:00 36 J/kg 6.4 K 0 % 0 % 0 % 0 m²/s² 0 0 9.82 2
12:00 73 J/kg 4.1 K 0 % 0 % 0 % 0 m²/s² 0 0 6.44 3
13:00 116 J/kg 2.5 K 0 % 0 % 0 % 0 m²/s² 0 0 3.91 61
14:00 167 J/kg 1.7 K 0 % 0 % 0 % 0 m²/s² 0 0 2.27 61
15:00 142 J/kg 1.7 K 0 % 0 % 0 % 0 m²/s² 0 0 2.78 3
16:00 97 J/kg 2.0 K 0 % 0 % 0 % 0 m²/s² 0 0 3.83 61
17:00 52 J/kg 2.3 K 0 % 0 % 0 % 0 m²/s² 0 0 4.37 61
18:00 35 J/kg 2.3 K 0 % 0 % 0 % 0 m²/s² 0 0 4.37 80
19:00 0 J/kg 2.9 K 0 % 0 % 0 % 0 m²/s² 0 0 4.64 80
20:00 0 J/kg 2.5 K 0 % 0 % 0 % 0 m²/s² 0 0 3.58 2
21:00 0 J/kg 2.0 K 0 % 0 % 0 % 0 m²/s² 0 0 2.57 3
22:00 0 J/kg 1.6 K 0 % 0 % 0 % 0 m²/s² 0 0 2.14 3
23:00 0 J/kg 1.3 K 0 % 0 % 0 % 0 m²/s² 0 0 1.78 3
 07:08     17:41    Daglengte: 10:33 Woensdag 26 Feb
00:00 0 J/kg 1.0 K 0 % 0 % 0 % 0 m²/s² 0 0 1.69 2
01:00 0 J/kg 0.9 K 0 % 0 % 0 % 0 m²/s² 0 0 1.92 2
02:00 0 J/kg 0.7 K 0 % 0 % 0 % 0 m²/s² 0 0 1.63 2
03:00 0 J/kg 0.7 K 0 % 0 % 0 % 0 m²/s² 0 0 1.96 2
04:00 0 J/kg 0.6 K 0 % 0 % 0 % 0 m²/s² 0 0 2.22 3
05:00 0 J/kg 0.8 K 0 % 0 % 0 % 0 m²/s² 0 0 1.97 3
06:00 0 J/kg 1.1 K 0 % 0 % 0 % 0 m²/s² 0 0 2.78 3
07:00 0 J/kg 0.5 K 0 % 0 % 0 % 0 m²/s² 0 0 2.78 71
08:00 0 J/kg 0.9 K 0 % 0 % 0 % 0 m²/s² 0 0 3.3 73
09:00 1 J/kg 0.8 K 0 % 0 % 0 % 0 m²/s² 0 0 3.26 73
10:00 44 J/kg 0.8 K 0 % 0 % 0 % 0 m²/s² 0 0 2.48 3
11:00 46 J/kg 1.7 K 0 % 0 % 0 % 0 m²/s² 0 0 2.87 3
12:00 14 J/kg 3.0 K 0 % 0 % 0 % 0 m²/s² 0 0 4.32 3
Temp Baro Wind Neerslag
  EWN Forecast EWN WRFDA DWD ICON FMI HIRLAM MET Norway GFS
 07:15     17:35    Daglengte: 10:20 Vandaag
13:00 5.8° 1002.5 hPa 5.8 m/s 0.0 mm 6.7° 1000.4 hPa 5.2 m/s 0.2 mm 5.6° 1002.4 hPa 5.1 m/s -0.6 mm 7.2° 1002.8 hPa 7.8 m/s 0.0 mm 5.5° 1002.7 hPa 5.7 m/s 4.9° 1001.7 hPa 4.6 m/s
16:00 5.2° 999.6 hPa 4.8 m/s 2.2 mm 5.3° 996.5 hPa 4.8 m/s 4.3 mm 5.3° 999.4 hPa 3.8 m/s 2.5 mm 6.1° 999.8 hPa 5.6 m/s 0.0 mm 5.1° 999.8 hPa 4.8 m/s 4.8° 998.0 hPa 5.7 m/s
19:00 4.1° 1002.0 hPa 8.9 m/s 4.4 mm 4.2° 1000.5 hPa 9.0 m/s 10.5 mm 4.1° 1001.2 hPa 7.6 m/s 3.5 mm 5.7° 1002.3 hPa 10.4 m/s 0.0 mm 3.7° 1003.3 hPa 9.0 m/s 4.1° 1002.2 hPa 7.9 m/s
22:00 4.3° 1006.7 hPa 10.4 m/s 4.8 mm 3.7° 1004.6 hPa 10.7 m/s 17.5 mm 4.2° 1006.8 hPa 9.3 m/s 1.6 mm 5.6° 1006.7 hPa 11.8 m/s 0.0 mm 4.3° 1007.7 hPa 9.8 m/s 3.8° 1006.0 hPa 11.0 m/s
 07:13     17:37    Daglengte: 10:24 Morgen
01:00 4.6° 1010.8 hPa 10.3 m/s 0.0 mm 4.5° 1008.3 hPa 10.9 m/s 18.7 mm 4.1° 1010.6 hPa 7.9 m/s 0.0 mm 6.3° 1011.0 hPa 11.6 m/s 0.0 mm 4.5° 1011.8 hPa 10.0 m/s 4.0° 1010.3 hPa 11.0 m/s
04:00 5.0° 1013.1 hPa 9.7 m/s 0.0 mm 4.4° 1010.0 hPa 9.1 m/s 19.3 mm 4.6° 1012.9 hPa 7.3 m/s 0.0 mm 6.1° 1013.3 hPa 9.8 m/s 0.0 mm 4.9° 1013.8 hPa 9.7 m/s 4.5° 1012.2 hPa 9.9 m/s
07:00 4.4° 1015.5 hPa 6.7 m/s 0.0 mm 3.7° 1012.6 hPa 5.5 m/s 19.6 mm 4.6° 1014.4 hPa 5.1 m/s 0.1 mm 5.5° 1016.1 hPa 7.8 m/s 0.0 mm 4.3° 1016.2 hPa 6.6 m/s 3.8° 1015.2 hPa 7.0 m/s
10:00 5.6° 1016.4 hPa 5.1 m/s 0.0 mm 5.4° 1013.2 hPa 4.9 m/s 19.7 mm 5.1° 1014.6 hPa 4.9 m/s 0.0 mm 6.7° 1017.3 hPa 5.9 m/s 0.0 mm 5.8° 1017.4 hPa 4.8 m/s 4.8° 1015.5 hPa 6.0 m/s
13:00 6.3° 1014.8 hPa 4.4 m/s 0.0 mm 6.8° 1012.0 hPa 3.1 m/s 19.7 mm 5.8° 1012.3 hPa 4.6 m/s 0.0 mm 7.7° 1015.7 hPa 4.1 m/s 0.0 mm 6.3° 1015.9 hPa 4.4 m/s 6.2° 1014.3 hPa 5.2 m/s
16:00 5.9° 1010.7 hPa 4.3 m/s 0.0 mm 6.7° 1007.6 hPa 6.0 m/s 20.0 mm 5.8° 1007.3 hPa 4.2 m/s 0.0 mm 7.9° 1010.9 hPa 5.9 m/s 0.0 mm 5.6° 1011.7 hPa 3.7 m/s 5.3° 1009.8 hPa 4.8 m/s
19:00 3.1° 1005.8 hPa 6.0 m/s 3.8 mm 2.2° 1003.4 hPa 6.3 m/s 22.5 mm 1.9° 1003.6 hPa 4.8 m/s 2.7 mm 5.7° 1005.5 hPa 8.1 m/s 0.0 mm 2.9° 1006.5 hPa 6.0 m/s 2.4° 1004.6 hPa 6.9 m/s
22:00 2.0° 999.3 hPa 6.5 m/s 6.8 mm 1.7° 995.8 hPa 6.3 m/s 32.0 mm 0.8° 998.4 hPa 4.6 m/s 3.0 mm 3.1° 998.9 hPa 9.4 m/s 0.0 mm 2.3° 999.8 hPa 6.3 m/s 4.0° 997.1 hPa 7.3 m/s
 07:10     17:39    Daglengte: 10:29 Dinsdag 25 Feb
01:00 4.7° 994.7 hPa 5.4 m/s 9.1 mm 5.4° 991.2 hPa 4.3 m/s 45.4 mm 3.3° 994.1 hPa 4.3 m/s 0.8 mm 6.4° 994.3 hPa 7.5 m/s 0.0 mm 5.2° 995.2 hPa 5.4 m/s 8.2° 992.3 hPa 7.8 m/s
04:00 7.2° 992.8 hPa 8.0 m/s 3.5 mm 6.2° 989.7 hPa 8.9 m/s 48.7 mm 6.5° 992.3 hPa 5.5 m/s 0.1 mm 9.3° 992.0 hPa 10.1 m/s 0.0 mm 7.6° 993.6 hPa 8.0 m/s 6.4° 991.5 hPa 10.3 m/s
07:00 4.9° 993.5 hPa 8.0 m/s 3.9 mm 3.2° 989.8 hPa 8.6 m/s 49.2 mm 5.3° 991.9 hPa 7.3 m/s 0.6 mm 6.3° 993.3 hPa 9.9 m/s 0.0 mm 4.7° 994.2 hPa 6.8 m/s 4.1° 992.9 hPa 10.4 m/s
10:00 5.3° 992.8 hPa 9.6 m/s 0.0 mm 4.5° 988.6 hPa 11.6 m/s 49.3 mm 5.7° 989.0 hPa 9.5 m/s 0.3 mm 5.4° 993.6 hPa 9.0 m/s 4.4° 991.7 hPa 13.3 m/s
13:00 6.2° 991.4 hPa 11.5 m/s 0.0 mm 5.8° 987.3 hPa 13.2 m/s 49.4 mm 5.1° 985.7 hPa 11.7 m/s 0.4 mm 6.4° 992.6 hPa 11.3 m/s 5.3° 989.6 hPa 14.6 m/s
16:00 5.5° 990.5 hPa 11.9 m/s 7.1 mm 5.3° 986.0 hPa 13.3 m/s 50.3 mm 5.0° 986.0 hPa 12.8 m/s 0.7 mm 5.6° 991.5 hPa 11.6 m/s 5.2° 988.3 hPa 14.6 m/s
19:00 4.2° 990.3 hPa 10.1 m/s 9.4 mm 3.3° 985.5 hPa 12.6 m/s 50.6 mm 4.2° 990.4 hPa 10.2 m/s 1.1 mm 4.5° 991.7 hPa 7.8 m/s 3.5° 989.6 hPa 13.0 m/s
22:00 3.6° 990.6 hPa 9.3 m/s 0.0 mm 3.0° 984.2 hPa 12.2 m/s 50.7 mm 3.4° 992.1 hPa 8.9 m/s 0.0 mm 3.8° 991.2 hPa 7.2 m/s 3.3° 990.6 hPa 11.9 m/s
 07:08     17:41    Daglengte: 10:33 Woensdag 26 Feb
01:00 3.0° 990.3 hPa 7.5 m/s 0.0 mm 2.5° 984.3 hPa 11.7 m/s 50.9 mm 2.9° 992.4 hPa 6.3 m/s 0.0 mm 3.1° 990.6 hPa 6.7 m/s 3.2° 990.9 hPa 10.6 m/s
04:00 2.1° 989.1 hPa 5.8 m/s 0.0 mm 1.7° 982.9 hPa 10.0 m/s 50.9 mm 1.9° 990.4 hPa 3.0 m/s 0.0 mm 2.5° 989.4 hPa 5.3 m/s 1.6° 989.6 hPa 7.7 m/s
07:00 1.8° 988.0 hPa 4.6 m/s 6.3 mm 1.3° 982.7 hPa 6.9 m/s 50.9 mm 0.2° 988.1 hPa 3.3 m/s 1.1 mm 2.0° 988.2 hPa 4.0 m/s 0.5° 989.0 hPa 5.3 m/s
10:00 3.1° 987.8 hPa 5.6 m/s 14.5 mm 3.4° 982.9 hPa 8.1 m/s 51.0 mm 2.3° 988.1 hPa 6.9 m/s 4.8 mm 3.2° 988.6 hPa 4.0 m/s 3.1° 989.7 hPa 5.2 m/s
13:00 4.2° 988.6 hPa 5.6 m/s 0.0 mm 3.7° 985.3 hPa 8.0 m/s 51.8 mm 3.8° 989.0 hPa 6.9 m/s 0.0 mm 4.5° 989.0 hPa 4.0 m/s 4.9° 991.7 hPa 5.6 m/s
16:00 3.2° 991.2 hPa 3.4 m/s 19.4 mm 3.2° 991.1 hPa 3.1 m/s 3.2° 993.0 hPa 6.8 m/s 19.4 mm
19:00 2.5° 992.4 hPa 2.9 m/s 19.4 mm 2.6° 992.1 hPa 2.7 m/s 1.1° 996.0 hPa 5.6 m/s 19.4 mm
22:00 2.1° 993.6 hPa 3.6 m/s 19.4 mm 2.1° 993.1 hPa 3.4 m/s 1.1° 998.8 hPa 6.2 m/s 19.4 mm
 07:06     17:43    Daglengte: 10:37 Donderdag 27 Feb
01:00 1.6° 994.6 hPa 4.2 m/s 19.6 mm 1.7° 994.1 hPa 4.1 m/s 0.7° 1000.6 hPa 5.0 m/s 19.6 mm
04:00 1.6° 995.8 hPa 3.8 m/s 19.7 mm 1.8° 995.2 hPa 3.8 m/s 0.3° 1002.1 hPa 2.7 m/s 19.7 mm
07:00 1.7° 997.0 hPa 3.5 m/s 19.9 mm 1.8° 996.4 hPa 3.6 m/s 0.3° 1004.1 hPa 2.6 m/s 19.9 mm
10:00 3.0° 998.8 hPa 4.1 m/s 19.9 mm 3.1° 998.2 hPa 4.2 m/s 1.8° 1005.3 hPa 3.2 m/s 19.9 mm
13:00 4.3° 1000.4 hPa 4.6 m/s 19.9 mm 4.4° 1000.1 hPa 4.7 m/s 3.8° 1003.9 hPa 3.7 m/s 19.9 mm
16:00 3.5° 1000.5 hPa 3.8 m/s 20.0 mm 3.5° 1000.5 hPa 3.8 m/s 3.7° 1001.0 hPa 4.7 m/s 20.0 mm
19:00 2.5° 1000.6 hPa 3.0 m/s 20.0 mm 2.5° 1000.9 hPa 2.8 m/s 2.3° 997.6 hPa 5.6 m/s 20.0 mm
22:00 1.7° 1000.6 hPa 3.3 m/s 20.1 mm 1.8° 1001.3 hPa 2.8 m/s 1.7° 992.4 hPa 8.6 m/s 20.1 mm
 07:03     17:45    Daglengte: 10:42 Vrijdag 28 Feb
01:00 1.0° 1000.4 hPa 3.5 m/s 22.7 mm 1.0° 1001.8 hPa 2.9 m/s 0.5° 985.0 hPa 10.1 m/s 22.7 mm
04:00 1.1° 1000.1 hPa 3.7 m/s 25.0 mm 0.9° 1002.0 hPa 3.0 m/s 2.7° 980.2 hPa 10.9 m/s 25.0 mm
07:00 1.0° 1000.4 hPa 3.7 m/s 26.3 mm 0.8° 1002.1 hPa 3.1 m/s 3.6° 981.8 hPa 10.0 m/s 26.3 mm
10:00 3.0° 999.3 hPa 4.1 m/s 26.5 mm 3.1° 1000.1 hPa 3.2 m/s 1.9° 990.0 hPa 13.8 m/s 26.5 mm
13:00 5.2° 998.1 hPa 3.6 m/s 26.7 mm 5.4° 998.1 hPa 3.3 m/s 3.1° 998.5 hPa 6.7 m/s 26.7 mm
16:00 4.3° 998.9 hPa 3.5 m/s 26.7 mm 4.5° 998.5 hPa 3.3 m/s 3.2° 1002.6 hPa 5.1 m/s 26.7 mm
19:00 3.2° 999.4 hPa 3.2 m/s 26.7 mm 3.5° 999.0 hPa 3.4 m/s 0.4° 1003.5 hPa 1.1 m/s 26.7 mm
22:00 3.0° 996.8 hPa 3.4 m/s 26.7 mm 3.2° 996.1 hPa 3.3 m/s 0.1° 1003.4 hPa 3.7 m/s 26.7 mm
 07:01     17:47    Daglengte: 10:46 Zaterdag 29 Feb
01:00 2.8° 993.9 hPa 3.5 m/s 26.7 mm 3.0° 993.3 hPa 3.3 m/s 0.7° 1000.5 hPa 5.6 m/s 26.7 mm
04:00 2.6° 990.2 hPa 3.9 m/s 26.7 mm 2.7° 989.8 hPa 3.5 m/s 1.5° 995.2 hPa 8.2 m/s 26.7 mm
07:00 2.3° 986.5 hPa 4.4 m/s 29.4 mm 2.4° 986.2 hPa 3.8 m/s 0.6° 989.4 hPa 11.3 m/s 29.4 mm
10:00 3.4° 986.0 hPa 4.8 m/s 31.7 mm 3.5° 986.0 hPa 4.3 m/s 2.4° 985.3 hPa 9.8 m/s 31.7 mm
13:00 4.6° 985.6 hPa 4.8 m/s 32.8 mm 4.5° 985.9 hPa 4.8 m/s 6.1° 982.8 hPa 5.3 m/s 32.8 mm
16:00 5.2° 985.1 hPa 3.9 m/s 33.3 mm 5.0° 985.3 hPa 3.8 m/s 7.8° 982.5 hPa 5.2 m/s 33.3 mm
19:00 5.5° 984.6 hPa 3.2 m/s 35.0 mm 5.5° 984.7 hPa 2.8 m/s 5.9° 983.5 hPa 7.6 m/s 35.0 mm
22:00 4.4° 985.8 hPa 4.0 m/s 35.8 mm 4.3° 986.0 hPa 3.6 m/s 4.4° 984.3 hPa 7.4 m/s 35.8 mm
 06:59     17:49    Daglengte: 10:50 Zondag 01 Maa
01:00 3.2° 987.0 hPa 4.8 m/s 35.9 mm 3.2° 987.2 hPa 4.5 m/s 2.9° 984.9 hPa 7.6 m/s 35.9 mm
04:00 2.9° 987.4 hPa 4.7 m/s 36.3 mm 3.0° 987.5 hPa 4.7 m/s 1.5° 985.5 hPa 4.8 m/s 36.3 mm
07:00 2.6° 987.8 hPa 5.0 m/s 36.3 mm 2.8° 987.9 hPa 4.9 m/s 0.8° 986.3 hPa 6.3 m/s 36.3 mm
10:00 4.2° 989.9 hPa 5.7 m/s 36.3 mm 4.3° 990.1 hPa 5.4 m/s 3.0° 987.4 hPa 9.2 m/s 36.3 mm
13:00 5.6° 992.0 hPa 6.2 m/s 36.4 mm 5.8° 992.4 hPa 5.9 m/s 3.9° 987.9 hPa 9.5 m/s 36.4 mm
19:00 3.4° 993.1 hPa 3.9 m/s 37.4 mm 3.6° 993.6 hPa 3.7 m/s 0.9° 988.0 hPa 6.6 m/s 37.4 mm
 06:56     17:51    Daglengte: 10:55 Maandag 02 Maa
01:00 2.1° 995.0 hPa 5.1 m/s 37.5 mm 2.3° 995.8 hPa 5.1 m/s -0.4° 986.6 hPa 5.2 m/s 37.5 mm
07:00 1.4° 997.9 hPa 3.1 m/s 41.6 mm 1.5° 998.9 hPa 2.9 m/s 0.1° 987.3 hPa 4.8 m/s 41.6 mm
13:00 5.0° 1000.6 hPa 4.1 m/s 43.1 mm 5.3° 1001.3 hPa 3.9 m/s 2.2° 992.3 hPa 5.9 m/s 43.1 mm
19:00 3.0° 1002.4 hPa 2.9 m/s 43.3 mm 3.2° 1002.8 hPa 2.8 m/s 0.8° 997.5 hPa 3.5 m/s 43.3 mm
 06:54     17:53    Daglengte: 10:59 Dinsdag 03 Maa
01:00 0.9° 1003.7 hPa 2.2 m/s 44.8 mm 0.9° 1003.8 hPa 1.9 m/s 0.5° 1002.3 hPa 5.1 m/s 44.8 mm
07:00 0.3° 1002.0 hPa 2.4 m/s 46.7 mm 0.4° 1001.7 hPa 2.2 m/s -1.3° 1005.4 hPa 4.1 m/s 46.7 mm
13:00 5.6° 1003.8 hPa 3.8 m/s 46.8 mm 6.1° 1003.5 hPa 3.8 m/s 0.2° 1006.8 hPa 3.3 m/s 46.8 mm
19:00 3.0° 1002.2 hPa 2.6 m/s 46.8 mm 3.5° 1001.9 hPa 2.8 m/s -2.8° 1005.7 hPa 0.4 m/s 46.8 mm
 06:52     17:55    Daglengte: 11:03 Woensdag 04 Maa
01:00 -4.2° 1003.1 hPa 2.1 m/s 46.8 mm -4.2° 1003.1 hPa 2.1 m/s 46.8 mm
07:00 1.9° 1000.5 hPa 3.5 m/s 0.5 mm
13:00 5.0° 1002.0 hPa 3.2 m/s 0.5 mm
19:00 3.4° 1003.3 hPa 2.1 m/s 0.3 mm
 06:49     17:57    Daglengte: 11:08 Donderdag 05 Maa
01:00 2.2° 1003.7 hPa 2.8 m/s 0.3 mm
07:00 2.2° 1003.6 hPa 2.7 m/s 0.6 mm
13:00 5.0° 1004.2 hPa 2.4 m/s 0.7 mm
19:00 3.2° 1005.0 hPa 2.3 m/s 1.2 mm
 06:47     17:59    Daglengte: 11:12 Vrijdag 06 Maa
01:00 2.5° 1005.9 hPa 3.0 m/s 0.4 mm
07:00 1.9° 1005.7 hPa 3.7 m/s 0.5 mm
13:00 5.2° 1005.9 hPa 4.6 m/s 0.8 mm
19:00 3.5° 1005.6 hPa 3.3 m/s 0.9 mm
 06:44     18:01    Daglengte: 11:17 Zaterdag 07 Maa
01:00 2.5° 1005.8 hPa 4.2 m/s 0.4 mm
07:00 1.9° 1006.0 hPa 3.9 m/s 0.2 mm
13:00 5.4° 1007.2 hPa 4.7 m/s 0.9 mm
19:00 3.6° 1008.9 hPa 3.7 m/s 0.5 mm
 06:42     18:03    Daglengte: 11:21 Zondag 08 Maa
01:00 2.4° 1010.5 hPa 4.1 m/s 0.4 mm
07:00 1.7° 1010.8 hPa 4.1 m/s 0.7 mm
13:00 5.4° 1010.6 hPa 3.2 m/s 1.0 mm
19:00 3.6° 1009.6 hPa 1.5 m/s 0.8 mm
 06:39     18:05    Daglengte: 11:26 Maandag 09 Maa
01:00 2.5° 1009.5 hPa 1.8 m/s 0.7 mm
07:00 2.2° 1009.5 hPa 1.8 m/s 0.5 mm
FMI Hirlam - 7.5 km EWN WRFDA - 12 km DWD ICON - 7 km GFS - 25 km Basiskaart






























































Updatetijd (Europe/Amsterdam) Resolutie Lengte Stap
FMI Hirlam 06:15, 12:15, 18:15, 00:15 7.5 km 49h 1h
EWN WRFDA 08:45, 14:45, 20:45, 02:45 12 km 73h 1h
DWD ICON 10:45, 16:45, 22:45, 04:45 7 km 75h 1h
GFS 07:00, 13:00, 19:00, 01:00 25 km 237h 3h
30+ mm
25-30 mm
20-25 mm
15-20 mm
10-15 mm
6-10 mm
4-6 mm
2-4 mm
1-2 mm
0.5-1 mm
0.2-0.5 mm
0.1-0.2 mm
30+ mm
25-30 mm
20-25 mm
15-20 mm
10-15 mm
6-10 mm
4-6 mm
2-4 mm
1-2 mm
0.5-1 mm
0.2-0.5 mm
0.1-0.2 mm
Sneeuwval
Natte sneeuw
Hagel
Vorst
30+ mm
25-30 mm
20-25 mm
15-20 mm
10-15 mm
6-10 mm
4-6 mm
2-4 mm
1-2 mm
0.5-1 mm
0.2-0.5 mm
0.1-0.2 mm
Sneeuwval
Natte sneeuw
Hagel
Vorst
Onweer
50 mm
40 mm
30 mm
26 mm
22 mm
18 mm
14 mm
10 mm
9 mm
8 mm
7 mm
6 mm
5 mm
4.5 mm
4 mm
3.5 mm
3 mm
2.5 mm
2 mm
1.5 mm
1 mm
0.8 mm
0.6 mm
0.4 mm
0.2 mm
0.05 mm
35°
30°
25°
20°
15°
10°
-5°
-10°
-15°
-20°
-25°
-30°
-35°
33> m/s
29 m/s
25 m/s
21 m/s
17 m/s
14 m/s
11 m/s
8 m/s
5 m/s
3 m/s
0 m/s
2600 J/kg
2400 J/kg
2200 J/kg
2000 J/kg
1800 J/kg
1600 J/kg
1400 J/kg
1200 J/kg
1000 J/kg
800 J/kg
600 J/kg
400 J/kg
200 J/kg
70 dBZ
65 dBZ
60 dBZ
55 dBZ
50 dBZ
45 dBZ
40 dBZ
35 dBZ
30 dBZ
25 dBZ
20 dBZ
15 dBZ
10 dBZ
5 dBZ
-1 K
-2 K
-3 K
-4 K
-5 K
-6 K
-7 K
-8 K
-9 K
950 m²/s²
900 m²/s²
850 m²/s²
800 m²/s²
750 m²/s²
700 m²/s²
650 m²/s²
600 m²/s²
550 m²/s²
500 m²/s²
450 m²/s²
400 m²/s²
350 m²/s²
300 m²/s²
250 m²/s²
200 m²/s²
150 m²/s²
100 m²/s²
46 m/s
44 m/s
42 m/s
40 m/s
38 m/s
36 m/s
34 m/s
32 m/s
30 m/s
28 m/s
26 m/s
24 m/s
22 m/s
20 m/s
16 m/s
12 m/s
8 m/s
4 m/s
30 m/s
28 m/s
26 m/s
24 m/s
22 m/s
20 m/s
18 m/s
16 m/s
14 m/s
12 m/s
10 m/s
8 m/s
6 m/s
4 m/s
2 m/s
3.0
2.8
2.6
2.4
2.2
2.0
1.8
1.6
1.4
1.2
1.0
0.8
0.6
0.4
0.2
15
14
13
12
11
10
9
8
7
6
5
4
3
2
1
90%
80%
70%
60%
50%
40%
30%
20%
10%
42
40
38
36
34
32
30
28
26
24
22
20
18
16
14
12
90+ cm
80-90 cm
70-80 cm
60-70 cm
50-60 cm
40-50 cm
30-40 cm
20-30 cm
10-20 cm
1-10 cm
Sneeuwval
Natte sneeuw
Regen
>120 mm
115 mm
110 mm
105 mm
100 mm
95 mm
90 mm
85 mm
80 mm
75 mm
70 mm
65 mm
60 mm
55 mm
50 mm
45 mm
45 mm
40 mm
35 mm
30 mm
25 mm
20 mm
15 mm
10 mm
5 mm
0.1 mm
960 hPa
880 hPa
800 hPa
720 hPa
640 hPa
560 hPa
584 gpdm
568 gpdm
552 gpdm
536 gpdm
520 gpdm
504 gpdm
488 gpdm
Extreem zwaar Noodweer Kans op onweer
15% 15% 5% 50% 15%

Dag




Kaart






35°
30°
25°
20°
15°
10°
-5°
-10°
-15°
-20°
-25°
-30°
-35°
33> m/s
29 m/s
25 m/s
21 m/s
17 m/s
14 m/s
11 m/s
8 m/s
5 m/s
3 m/s
0 m/s
Extreem zwaar Noodweer Kans op onweer
15% 15% 5% 50% 15%
>120 mm
115 mm
110 mm
105 mm
100 mm
95 mm
90 mm
85 mm
80 mm
75 mm
70 mm
65 mm
60 mm
55 mm
50 mm
45 mm
45 mm
40 mm
35 mm
30 mm
25 mm
20 mm
15 mm
10 mm
5 mm
0.1 mm
Onweer risico kaarten - De groene en gele kleur geeft de kans op onweer aan binnen 40 km van een punt. Oranje, rood en violet hebben hetzelfde niveau zoals je het ziet op estofex.org waaronder ook de kans op hagel en supercells.

dBZ - dBZ staat voor decibel ten opzichte van Z.

Cape - Convective available potential energy (CAPE), is de totale hoeveelheid energie die een luchtpakketje nodig heeft om zover mogelijk te stijgen in de atmosfeer.

K Index - K-Index wordt berekend door de Vertical Totals (VT) en het verschil tussen de 850 hPa temperatuur en de 700 hPa dauwpuntsdepressie (Tdd 700) bij elkaar op te tellen.

TT Index - Convectie index wordt gebruikt voor het voorspellen van zware buien of onweer.

WRF - The Weather Research and Forecasting (WRF) is een volgende generatie mesoscale numeriek weersvoorspelling systeem ontworpen om zowel de operationele planning als het atmosferisch onderzoek te dienen. WRF is a cooperatie tussen het National Center for Atmospheric Research (NCAR), National Centers for Environmental Prediction (NCEP), Forecast Systems Laboratory (FSL), Air Force Weather Agency (AFWA), Naval Research Laboratory, University of Oklahoma, en de Federal Aviation Administration (FAA). Deze software draait op onze server.

WRFDA - Een meer geavanceerde versie van WRF

Arome - Het 2.5 km Arome model. Verzorgd door het Noors Meteorologisch Instituut.

MET Norway - De proff-default 4km meteorological data is een beste keus selectie van meteorologische modellen gebruikt door met.no die zijn geïnterpoleerd tot een gemeenschappelijke dataset. Verzorgd door het Noorse Meteorologisch Instituut.

SMHI - Het Hirlam model verzorgd door het Zweeds meteorologisch instituut.

FMI - Het Hirlam model verzorgd door het Fins meteorologisch instituut. Dekking alleen Finland.

GFS - Het Global Forecast Systeem (GFS) is een wereldwijd numerieke weersvoorspelling computermodel, gerund door NOAA.

GEM-GDPS - Het GEM-GDPS is a wereldwijd numeriek weersvoorspelling computermodel verzorgd door het Canadees Meteorologisch Centrum.

Credits/Info: Dank aan Stefan Gofferje van sääkeskus.fi voor enkele formules van GrADS. Info: Wikipedia.

Betrouwbaarheid van de verwachting

NB! 2015-03-29: Rebuilding the accuracy-test!

EWNACC
Day 1 Good forecasts

Dag 1 Tmax

Dag 2 Tmax

Geladen verwachtingen TOP 50

Totaal geladen verwachtingen:
Plaats Latitude Longitude Verwachtingen Plaats Latitude Longitude Verwachtingen